Location: Cieszkowy
(50.3290°N, 20.5336°E)
Time: 14:45:13
(UTC+00:00)

Cosmos 1975 Rocket - Pass Details

Date: 15 June 2024
Orbit: 601 x 629 km, 82.5° (Epoch: 14 July)

Event Time Altitude Azimuth Distance (km) Brightness Sun altitude
Exits shadow 00:21:37 20° 213° (SSW) 1,436 4.3 -12.9°
Maximum altitude 00:24:29 53° 284° (WNW) 757 3.4 -12.7°
Drops below altitude 10° 00:28:49 10° 2° (N) 1,995 6.8 -12.4°
Sets 00:31:07 0° 7° (N) 2,911 8.0 -12.2°
